Погода в Черевково

Россия / Архангельская область     61°46′46″N   45°16′43″E
темп.,
°C
ветер,
м/с
пор.,
м/с
влажн.,
%
обл.,
%
осадки,
мм/ч
давл.,
гПа
погр.,
м
5 августа, чт
чт500:00+11зюз310822 0.0 1013229
03:00+9з25800 0.0 101488
06:00+12зсз26710 0.0 1016222
09:00+16зсз36505 0.0 10161076
12:00+19сз47395 0.0 10172059
15:00+20ссз463724 0.0 10172308
18:00+17ссз2551100 0.0 1018324
21:00+14с0158100 0.0 101811
6 августа, пт
пт600:00+13юв1161100 0.0 101810
03:00+12вюв0165100 0.0 101911
06:00+13всв1268100 0.0 102092
09:00+16св2254100 0.0 1020485
12:00+18в2250100 0.0 1020889
15:00+19св014599 0.0 1019935
18:00+18ссв235594 0.0 1019297
21:00+14в1166100 0.0 102019
7 августа, сб
сб700:00+13всв2772100 0.0 1021238
03:00+12в2773100 0.0 1021236
06:00+12всв2674100 0.0 1022257
09:00+15в355750 0.0 1022534
12:00+19в224199 0.0 10211392
15:00+21в2337100 0.0 10201771
18:00+19всв2449100 0.0 1020189
21:00+13в2264100 0.0 102134
8 августа, вс
вс800:00+12в2668100 0.0 1020129
03:00+12в2869100 0.0 1021203
06:00+12в2670100 0.0 1021227
09:00+10в31095100 2.0 1021373
12:00+10в51296100 2.9 1021645
15:00+12в51291100 3.3 1021695
18:00+11в51294100 0.9 1020490
21:00+11в41397100 3.7 1019478
9 августа, пн
пн900:00+11вюв31294100 0.1 1018428
03:00+11в41097100 2.4 1017407
06:00+12в389787 0.1 1016394
09:00+13в2598100 0.3 1016320
12:00+14св1298100 0.2 1016224
15:00+14ссв2298100 0.3 1017315
18:00+14ссв2398100 0.0 1018252
21:00+13ссв2499100 0.0 1019227